Location: Krasnoyarskiy Pitomnik
(51.1333°N, 71.6167°E)
Time: 13:04:20
(UTC+00:00)

Landsat 5 - Visible Passes

Search period start: 29 May 2022 00:00
Search period end: 08 June 2022 00:00
Orbit: 527 x 650 km, 98.2° (Epoch: 28 May)

Date Brightness Start Highest point End Pass type
(mag) Time Alt. Az. Time Alt. Az. Time Alt. Az.
01 Jun 6.8 16:02:32 10° NNW 16:05:11 16° WNW 16:07:51 10° W visible
02 Jun 6.9 16:10:23 10° NNW 16:12:40 14° NW 16:14:58 10° W visible
03 Jun 7.1 16:18:18 10° NNW 16:20:09 12° NW 16:21:58 10° WNW visible
04 Jun 7.3 16:26:27 10° NW 16:27:36 11° NW 16:28:46 10° WNW visible
